North Las Vegas, NV

12:48 AM PST on February 09, 2016 (GMT -0800)
North Las Vegas

Weather History for KVGT - December, 2012

Change the Weather History Date:

Wednesday, December 5, 2012

  Actual Average Record
Temperature  
Mean Temperature 56 °F 48 °F  
Max Temperature 63 °F 58 °F 67 °F (2007)
Min Temperature 48 °F 39 °F 28 °F (2013)
Degree Days  
Heating Degree Days 8 16  
Month to date heating degree days 78  
Since 1 July heating degree days 391  
Cooling Degree Days 0 0  
Month to date cooling degree days 0  
Year to date cooling degree days 3294  
Growing Degree Days 6 (Base 50)    
Moisture  
Dew Point 42 °F    
Average Humidity 61    
Maximum Humidity 74    
Minimum Humidity 46    
Precipitation  
Precipitation 0.00 in 0.01 in 0.01 in (2010)
Month to date precipitation 0.07  
Year to date precipitation 4.87  
Sea Level Pressure  
Sea Level Pressure 30.12 in    
Wind  
Wind Speed 2 mph (WNW)    
Max Wind Speed 6 mph    
Max Gust Speed -    
Visibility 10 miles    
Events      
T = Trace of Precipitation, MM = Missing Value Source: NWS Daily Summary

Daily Weather History Graph

Daily Weather History Graph

Search for Another Location

Airport or City:

Trip Planner

Search our weather history database for the weather conditions in past years. The results will help you decide how hot, cold, wet, or windy it might be!

Date:

Astronomy

Dec. 05, 2012 Rise Set
Actual Time 6:37 AM PST 4:25 PM PST
Civil Twilight 6:09 AM PST 4:54 PM PST
Nautical Twilight 5:37 AM PST 5:26 PM PST
Astronomical Twilight 5:05 AM PST 5:57 PM PST
Moon 11:10 PM PST (12/5) 11:11 AM PST (12/5)
Length of Visible Light 10h 45m
Length of Day
9h 48m
Waning Gibbous, 58% of the Moon is Illuminated
Dec 5
Waning Gibbous
Dec 6
Last Quarter
Dec 13
New
Dec 19
First Quarter
Dec 28
Full

Hourly Weather History & Observations

Time (PST) Temp. Dew Point Humidity Pressure Visibility Wind Dir Wind Speed Gust Speed Precip Events Conditions
12:53 AM 54.0 °F 43.0 °F 66% 30.20 in 10.0 mi WNW 3.5 mph - N/A   Clear
1:53 AM 53.1 °F 43.0 °F 69% 30.20 in 10.0 mi Calm Calm - N/A   Clear
2:53 AM 52.0 °F 43.0 °F 71% 30.18 in 10.0 mi Calm Calm - N/A   Clear
3:53 AM 52.0 °F 43.0 °F 71% 30.16 in 10.0 mi Calm Calm - N/A   Clear
4:53 AM 50.0 °F 42.1 °F 74% 30.17 in 10.0 mi North 3.5 mph - N/A   Clear
6:53 AM 50.0 °F 42.1 °F 74% 30.18 in 10.0 mi WNW 3.5 mph - N/A   Clear
7:53 AM 52.0 °F 41.0 °F 66% 30.18 in 10.0 mi NNW 5.8 mph - N/A   Clear
8:53 AM 55.0 °F 42.1 °F 62% 30.18 in 10.0 mi Calm Calm - N/A   Clear
9:53 AM 57.0 °F 42.1 °F 57% 30.18 in 10.0 mi North 3.5 mph - N/A   Clear
10:53 AM 60.1 °F 42.1 °F 51% 30.15 in 10.0 mi Calm Calm - N/A   Clear
11:53 AM 60.1 °F 41.0 °F 49% 30.12 in 10.0 mi Calm Calm - N/A   Clear
12:53 PM 61.0 °F 42.1 °F 50% 30.11 in 10.0 mi Calm Calm - N/A   Clear
1:53 PM 63.0 °F 42.1 °F 46% 30.08 in 10.0 mi Calm Calm - N/A   Clear
2:53 PM 63.0 °F 42.1 °F 46% 30.06 in 10.0 mi SSE 3.5 mph - N/A   Clear
3:53 PM 62.1 °F 42.1 °F 48% 30.06 in 10.0 mi South 3.5 mph - N/A   Clear
4:53 PM 61.0 °F 41.0 °F 48% 30.06 in 10.0 mi Calm Calm - N/A   Clear
5:53 PM 57.9 °F 42.1 °F 56% 30.06 in 10.0 mi Calm Calm - N/A   Clear
6:53 PM 55.9 °F 43.0 °F 62% 30.07 in 10.0 mi Calm Calm - N/A   Clear
7:53 PM 55.0 °F 42.1 °F 62% 30.07 in 10.0 mi Calm Calm - N/A   Clear
8:53 PM 53.1 °F 42.1 °F 66% 30.06 in 10.0 mi WSW 4.6 mph - N/A   Clear
9:53 PM 51.1 °F 41.0 °F 68% 30.05 in 10.0 mi NNW 4.6 mph - N/A   Clear
10:53 PM 50.0 °F 41.0 °F 71% 30.04 in 10.0 mi Calm Calm - N/A   Clear
11:53 PM 48.9 °F 39.9 °F 71% 30.03 in 10.0 mi WNW 4.6 mph - N/A   Clear